Madison, MN

11:58 AM CST on December 17, 2017 (GMT -0600)
Madison-Lac Qui Parle County

Weather History for KDXX - September, 2012

Change the Weather History Date:

Friday, September 21, 2012

  Actual Average (KAQP) Record (KAQP)
Temperature  
Mean Temperature 54 °F -  
Max Temperature 66 °F 67 °F 89 °F (2015)
Min Temperature 42 °F 43 °F 32 °F (2002)
Degree Days  
Heating Degree Days 11    
Growing Degree Days 4 (Base 50)    
Moisture  
Dew Point 34 °F    
Average Humidity 47    
Maximum Humidity 76    
Minimum Humidity 26    
Precipitation  
Precipitation 0.00 in - - ()
Sea Level Pressure  
Sea Level Pressure 29.88 in    
Wind  
Wind Speed 6 mph (NNW)    
Max Wind Speed 29 mph    
Max Gust Speed 37 mph    
Visibility 10 miles    
Events      
Averages and records for this station are not official NWS values.
T = Trace of Precipitation, MM = Missing Value Source: NWS Daily Summary

Daily Weather History Graph

Daily Weather History Graph

Search for Another Location

Airport or City:

Trip Planner

Search our weather history database for the weather conditions in past years. The results will help you decide how hot, cold, wet, or windy it might be!

Date:

Astronomy

Sep. 21, 2012 Rise Set
Actual Time 7:11 AM CDT 7:23 PM CDT
Civil Twilight 6:41 AM CDT 7:52 PM CDT
Nautical Twilight 6:07 AM CDT 8:26 PM CDT
Astronomical Twilight 5:32 AM CDT 9:02 PM CDT
Moon 1:50 PM CDT (9/21) 11:08 PM CDT (9/21)
Length of Visible Light 13h 10m
Length of Day
12h 11m
Waxing Crescent, 37% of the Moon is Illuminated
Sep 21
Waxing Crescent
Sep 22
First Quarter
Sep 29
Full
Oct 8
Last Quarter
Oct 15
New

Hourly Weather History & Observations

Time (CDT) Temp. Windchill Dew Point Humidity Pressure Visibility Wind Dir Wind Speed Gust Speed Precip Events Conditions
12:14 AM 55.4 °F - 33.8 °F 44% 29.89 in 10.0 mi Calm Calm - N/A   Mostly Cloudy
12:33 AM 55.4 °F - 33.8 °F 44% 29.89 in 10.0 mi Calm Calm - N/A   Overcast
12:54 AM 51.8 °F - 35.6 °F 54% 29.88 in 10.0 mi Calm Calm - N/A   Overcast
1:14 AM 53.6 °F - 35.6 °F 51% 29.88 in 10.0 mi Calm Calm - N/A   Scattered Clouds
1:33 AM 53.6 °F - 33.8 °F 47% 29.88 in 10.0 mi Calm Calm - N/A   Scattered Clouds
2:14 AM 51.8 °F - 37.4 °F 58% 29.87 in 10.0 mi Calm Calm - N/A   Mostly Cloudy
2:33 AM 51.8 °F - 37.4 °F 58% 29.87 in 10.0 mi SW 8.1 mph - N/A   Scattered Clouds
2:54 AM 51.8 °F - 37.4 °F 58% 29.86 in 10.0 mi SW 5.8 mph - N/A   Scattered Clouds
3:13 AM 51.8 °F - 37.4 °F 58% 29.85 in 10.0 mi SW 5.8 mph - N/A   Mostly Cloudy
3:34 AM 51.8 °F - 37.4 °F 58% 29.84 in 10.0 mi SW 6.9 mph - N/A   Scattered Clouds
3:53 AM 51.8 °F - 35.6 °F 54% 29.84 in 10.0 mi SW 8.1 mph - N/A   Clear
4:14 AM 51.8 °F - 35.6 °F 54% 29.84 in 10.0 mi SW 4.6 mph - N/A   Scattered Clouds
4:34 AM 51.8 °F - 37.4 °F 58% 29.84 in 10.0 mi ENE 5.8 mph - N/A   Clear
4:53 AM 48.2 °F - 37.4 °F 66% 29.84 in 10.0 mi East 3.5 mph - N/A   Scattered Clouds
5:14 AM 48.2 °F - 37.4 °F 66% 29.83 in 10.0 mi South 4.6 mph - N/A   Clear
5:34 AM 50.0 °F - 37.4 °F 62% 29.84 in 10.0 mi North 5.8 mph - N/A   Clear
5:53 AM 50.0 °F - 39.2 °F 66% 29.84 in 10.0 mi NE 4.6 mph - N/A   Clear
6:14 AM 48.2 °F - 39.2 °F 71% 29.84 in 10.0 mi NE 4.6 mph - N/A   Clear
6:34 AM 48.2 °F - 39.2 °F 71% 29.84 in 10.0 mi Calm Calm - N/A   Scattered Clouds
6:53 AM 48.2 °F - 39.2 °F 71% 29.85 in 10.0 mi Calm Calm - N/A   Mostly Cloudy
7:14 AM 48.2 °F - 39.2 °F 71% 29.85 in 10.0 mi Calm Calm - N/A   Scattered Clouds
7:34 AM 46.4 °F - 39.2 °F 76% 29.86 in 10.0 mi Calm Calm - N/A   Clear
7:53 AM 46.4 °F 43.5 °F 39.2 °F 76% 29.87 in 10.0 mi NE 5.8 mph - N/A   Clear
8:14 AM 48.2 °F - 41.0 °F 76% 29.87 in 10.0 mi NE 3.5 mph - N/A   Clear
8:34 AM 48.2 °F - 41.0 °F 76% 29.88 in 10.0 mi NNE 3.5 mph - N/A   Clear
8:53 AM 50.0 °F - 41.0 °F 71% 29.88 in 10.0 mi Calm Calm - N/A   Clear
9:14 AM 51.8 °F - 41.0 °F 67% 29.89 in 10.0 mi Calm Calm - N/A   Clear
9:34 AM 53.6 °F - 39.2 °F 58% 29.89 in 10.0 mi East 4.6 mph - N/A   Clear
9:53 AM 55.4 °F - 39.2 °F 54% 29.89 in 10.0 mi East 4.6 mph - N/A   Clear
10:14 AM 57.2 °F - 37.4 °F 48% 29.89 in 10.0 mi ENE 5.8 mph - N/A   Clear
10:34 AM 57.2 °F - 37.4 °F 48% 29.89 in 10.0 mi Calm Calm - N/A   Clear
10:53 AM 57.2 °F - 37.4 °F 48% 29.89 in 10.0 mi North 5.8 mph - N/A   Clear
11:14 AM 57.2 °F - 37.4 °F 48% 29.89 in 10.0 mi NNE 3.5 mph - N/A   Clear
11:34 AM 59.0 °F - 37.4 °F 45% 29.89 in 10.0 mi NNW 3.5 mph - N/A   Clear
11:53 AM 60.8 °F - 37.4 °F 42% 29.90 in 10.0 mi NNW 9.2 mph - N/A   Clear
12:14 PM 60.8 °F - 37.4 °F 42% 29.89 in 10.0 mi North 10.4 mph - N/A   Clear
12:33 PM 62.6 °F - 37.4 °F 39% 29.89 in 10.0 mi NW 8.1 mph - N/A   Clear
12:54 PM 62.6 °F - 35.6 °F 37% 29.88 in 10.0 mi NNW 10.4 mph 18.4 mph N/A   Clear
1:14 PM 62.6 °F - 35.6 °F 37% 29.88 in 10.0 mi NNW 12.7 mph 17.3 mph N/A   Scattered Clouds
1:33 PM 62.6 °F - 32.0 °F 32% 29.88 in 10.0 mi NNW 15.0 mph - N/A   Scattered Clouds
1:54 PM 64.4 °F - 33.8 °F 32% 29.88 in 10.0 mi North 13.8 mph 18.4 mph N/A   Scattered Clouds
2:13 PM 62.6 °F - 33.8 °F 34% 29.87 in 10.0 mi NNW 15.0 mph 21.9 mph N/A   Scattered Clouds
2:34 PM 64.4 °F - 32.0 °F 30% 29.86 in 10.0 mi NW 17.3 mph - N/A   Scattered Clouds
2:54 PM 62.6 °F - 33.8 °F 34% 29.86 in 10.0 mi North 15.0 mph 24.2 mph N/A   Scattered Clouds
3:13 PM 64.4 °F - 30.2 °F 28% 29.86 in 10.0 mi NW 15.0 mph 23.0 mph N/A   Scattered Clouds
3:34 PM 66.2 °F - 30.2 °F 26% 29.85 in 10.0 mi NW 13.8 mph 21.9 mph N/A   Scattered Clouds
3:54 PM 66.2 °F - 30.2 °F 26% 29.85 in 10.0 mi NNW 18.4 mph 26.5 mph N/A   Scattered Clouds
4:13 PM 66.2 °F - 30.2 °F 26% 29.85 in 10.0 mi NNW 13.8 mph 19.6 mph N/A   Scattered Clouds
4:34 PM 64.4 °F - 30.2 °F 28% 29.85 in 10.0 mi NNW 15.0 mph 21.9 mph N/A   Scattered Clouds
4:54 PM 64.4 °F - 30.2 °F 28% 29.84 in 10.0 mi NNW 16.1 mph 20.7 mph N/A   Scattered Clouds
5:13 PM 64.4 °F - 30.2 °F 28% 29.84 in 10.0 mi NNW 11.5 mph 19.6 mph N/A   Scattered Clouds
5:34 PM 64.4 °F - 30.2 °F 28% 29.84 in 10.0 mi NW 12.7 mph - N/A   Scattered Clouds
5:54 PM 62.6 °F - 30.2 °F 30% 29.85 in 10.0 mi NNW 12.7 mph - N/A   Scattered Clouds
6:13 PM 62.6 °F - 30.2 °F 30% 29.85 in 10.0 mi NNW 12.7 mph - N/A   Scattered Clouds
6:34 PM 62.6 °F - 30.2 °F 30% 29.85 in 10.0 mi North 12.7 mph - N/A   Scattered Clouds
6:54 PM 62.6 °F - 28.4 °F 27% 29.86 in 10.0 mi North 9.2 mph - N/A   Mostly Cloudy
7:14 PM 60.8 °F - 28.4 °F 29% 29.86 in 10.0 mi North 8.1 mph - N/A   Mostly Cloudy
7:34 PM 57.2 °F - 28.4 °F 33% 29.87 in 10.0 mi NNW 8.1 mph - N/A   Scattered Clouds
7:53 PM 55.4 °F - 30.2 °F 38% 29.88 in 10.0 mi NNW 9.2 mph - N/A   Clear
8:14 PM 57.2 °F - 28.4 °F 33% 29.88 in 10.0 mi NNW 10.4 mph - N/A   Scattered Clouds
8:33 PM 55.4 °F - 26.6 °F 33% 29.89 in 10.0 mi NW 8.1 mph - N/A   Clear
8:54 PM 53.6 °F - 28.4 °F 38% 29.89 in 10.0 mi NW 8.1 mph - N/A   Clear
9:14 PM 51.8 °F - 33.8 °F 50% 29.93 in 10.0 mi North 28.8 mph 36.8 mph N/A   Clear
9:33 PM 50.0 °F - 35.6 °F 58% 29.95 in 10.0 mi North 20.7 mph 31.1 mph N/A   Clear
9:54 PM 48.2 °F - 32.0 °F 54% 29.98 in 10.0 mi North 18.4 mph 24.2 mph N/A   Clear
10:14 PM 48.2 °F - 28.4 °F 46% 29.99 in 10.0 mi North 23.0 mph 34.5 mph N/A   Scattered Clouds
10:33 PM 46.4 °F 39.2 °F 24.8 °F 43% 30.01 in 10.0 mi North 18.4 mph 26.5 mph N/A   Mostly Cloudy
10:54 PM 46.4 °F 38.7 °F 19.4 °F 34% 30.02 in 10.0 mi North 20.7 mph 32.2 mph N/A   Scattered Clouds
11:14 PM 44.6 °F 36.4 °F 17.6 °F 34% 30.03 in 10.0 mi North 20.7 mph 33.4 mph N/A   Scattered Clouds
11:33 PM 42.8 °F 34.8 °F 19.4 °F 39% 30.05 in 10.0 mi North 17.3 mph 27.6 mph N/A   Clear
11:54 PM 42.8 °F 33.8 °F 17.6 °F 36% 30.06 in 10.0 mi North 21.9 mph 28.8 mph N/A   Clear